Location: Slidell
(30.2789°N, 89.7378°W)
Time: 18:45:28
(UTC-06:00)

Cosmos 2360 Rocket - Visible Passes

Search period start: 22 February 2018 00:00
Search period end: 04 March 2018 00:00
Orbit: 833 x 846 km, 71.0° (Epoch: 21 February)

Date Brightness Start Highest point End Pass type
(mag) Time Alt. Az. Time Alt. Az. Time Alt. Az.
22 Feb 3.9 05:32:50 10° S 05:38:00 38° ESE 05:43:11 10° NE visible
23 Feb 3.9 05:17:16 10° SSE 05:22:20 35° ESE 05:27:25 10° NE visible
24 Feb 4.0 05:01:42 10° SSE 05:06:40 32° ESE 05:11:39 10° NE visible
25 Feb 4.1 04:46:10 10° SSE 04:51:01 30° ESE 04:55:52 10° NE visible
26 Feb 4.2 04:30:38 10° SSE 04:35:21 28° ESE 04:40:04 10° NE visible
27 Feb 4.2 04:15:07 10° SSE 04:19:42 26° ESE 04:24:17 10° NE visible
27 Feb 2.9 05:58:25 10° SW 06:03:27 33° WNW 06:08:31 10° N visible
28 Feb 4.3 03:59:37 10° SSE 04:04:02 24° ESE 04:08:27 10° NE visible
28 Feb 2.8 05:42:37 10° SW 05:47:45 35° WNW 05:52:54 10° N visible
01 Mar 4.4 03:44:08 10° SSE 03:48:23 22° E 03:52:37 10° NE visible
01 Mar 2.7 05:26:49 10° SW 05:32:02 38° WNW 05:37:17 10° N visible
02 Mar 4.4 03:30:38 17° SE 03:32:43 20° E 03:36:46 10° NE visible
02 Mar 2.6 05:12:31 18° SW 05:16:20 40° WNW 05:21:40 10° N visible
03 Mar 4.4 03:16:47 19° ESE 03:17:04 19° E 03:20:54 10° ENE visible
03 Mar 2.5 04:58:38 32° WSW 05:00:38 44° WNW 05:06:01 10° N visible
